Hourly Weather Harbin

Today, 8 July, Wednesday

Time Temperature Precipitation Wind Pressure Humidity
00:00 +18°C° 0 mm 2 mps 741 mmHg 66%
01:00 +18°C° 0 mm 2 mps 741 mmHg 65%
02:00 +17°C° 0 mm 2 mps 741 mmHg 71%
03:00 +17°C° 0 mm 2 mps 741 mmHg 72%
04:00 +17°C° 0 mm 2 mps 741 mmHg 72%
05:00 +18°C° 0 mm 1 mps 741 mmHg 73%
06:00 +19°C° 0 mm 2 mps 741 mmHg 65%
07:00 +21°C° 0 mm 2 mps 741 mmHg 57%
08:00 +25°C° 0 mm 1 mps 741 mmHg 51%
09:00 +26°C° 0 mm 1 mps 741 mmHg 47%
10:00 +27°C° 0 mm 1 mps 741 mmHg 42%
11:00 +29°C° 0 mm 2 mps 741 mmHg 37%
12:00 +29°C° 0 mm 2 mps 741 mmHg 36%
13:00 +30°C° 0 mm 2 mps 740 mmHg 34%
14:00 +30°C° 0 mm 3 mps 740 mmHg 33%
15:00 +30°C° 0 mm 2 mps 740 mmHg 37%
16:00 +30°C° 0 mm 2 mps 740 mmHg 40%
17:00 +29°C° 0 mm 1 mps 740 mmHg 44%
18:00 +27°C° 0 mm 1 mps 740 mmHg 46%
19:00 +25°C° 0 mm 1 mps 740 mmHg 48%
20:00 +22°C° 0 mm 0 mps 740 mmHg 50%
21:00 +23°C° 0 mm 1 mps 740 mmHg 52%
22:00 +22°C° 0 mm 1 mps 740 mmHg 54%
23:00 +21°C° 0 mm 1 mps 740 mmHg 56%

Tomorrow, 9 July, Thursday

Time Temperature Precipitation Wind Pressure Humidity
00:00 +21°C° 0 mm 1 mps 740 mmHg 57%
01:00 +21°C° 0 mm 1 mps 740 mmHg 58%
02:00 +20°C° 0 mm 1 mps 740 mmHg 59%
03:00 +20°C° 0 mm 1 mps 741 mmHg 62%
04:00 +20°C° 0 mm 1 mps 741 mmHg 64%
05:00 +20°C° 0 mm 1 mps 741 mmHg 67%
06:00 +22°C° 0 mm 1 mps 741 mmHg 63%
07:00 +24°C° 0 mm 1 mps 742 mmHg 59%
08:00 +25°C° 0 mm 1 mps 742 mmHg 54%
09:00 +27°C° 0 mm 1 mps 742 mmHg 50%
10:00 +29°C° 0 mm 1 mps 742 mmHg 46%
11:00 +29°C° 0 mm 0 mps 742 mmHg 42%
12:00 +31°C° 0 mm 1 mps 742 mmHg 41%
13:00 +31°C° 0 mm 1 mps 741 mmHg 40%
14:00 +32°C° 0 mm 2 mps 741 mmHg 39%
15:00 +31°C° 0 mm 2 mps 741 mmHg 43%
16:00 +31°C° 0 mm 2 mps 741 mmHg 46%
17:00 +30°C° 0 mm 2 mps 741 mmHg 50%
18:00 +28°C° 0 mm 2 mps 742 mmHg 55%
19:00 +26°C° 0 mm 2 mps 742 mmHg 60%
20:00 +25°C° 0 mm 2 mps 742 mmHg 65%
21:00 +24°C° 0 mm 2 mps 742 mmHg 66%
22:00 +23°C° 0 mm 2 mps 743 mmHg 66%
23:00 +23°C° 0 mm 2 mps 743 mmHg 67%

Day after tomorrow, 10 July, Friday

Time Temperature Precipitation Wind Pressure Humidity
00:00 +21°C° 0 mm 2 mps 743 mmHg 69%
01:00 +21°C° 0 mm 2 mps 743 mmHg 70%
02:00 +20°C° 0 mm 2 mps 743 mmHg 71%
03:00 +20°C° 0 mm 2 mps 743 mmHg 73%
04:00 +20°C° 0 mm 2 mps 744 mmHg 75%
05:00 +20°C° 0 mm 2 mps 744 mmHg 77%
06:00 +22°C° 0 mm 3 mps 744 mmHg 72%
07:00 +25°C° 0 mm 3 mps 744 mmHg 67%
08:00 +27°C° 0 mm 4 mps 744 mmHg 62%
09:00 +28°C° 0 mm 4 mps 744 mmHg 58%
10:00 +29°C° 0 mm 5 mps 744 mmHg 54%
11:00 +30°C° 0 mm 5 mps 744 mmHg 50%
12:00 +32°C° 0 mm 5 mps 744 mmHg 50%
13:00 +32°C° 0 mm 5 mps 744 mmHg 49%
14:00 +33°C° 0 mm 5 mps 743 mmHg 48%
15:00 +32°C° 0 mm 5 mps 743 mmHg 53%
16:00 +30°C° 0 mm 5 mps 743 mmHg 57%
17:00 +30°C° 0 mm 5 mps 743 mmHg 62%
18:00 +28°C° 0 mm 5 mps 743 mmHg 66%
19:00 +27°C° 0 mm 5 mps 743 mmHg 69%
20:00 +24°C° 0 mm 6 mps 743 mmHg 73%
21:00 +24°C° 0 mm 6 mps 743 mmHg 74%
22:00 +23°C° 0 mm 5 mps 743 mmHg 75%
23:00 +23°C° 0 mm 5 mps 743 mmHg 76%

11 July, Saturday

Time Temperature Precipitation Wind Pressure Humidity
00:00 +22°C° 0 mm 4 mps 743 mmHg 78%
01:00 +22°C° 0 mm 4 mps 743 mmHg 80%
02:00 +21°C° 0 mm 3 mps 743 mmHg 82%
03:00 +21°C° 0 mm 4 mps 743 mmHg 82%
04:00 +21°C° 0 mm 4 mps 744 mmHg 83%
05:00 +21°C° 0 mm 4 mps 744 mmHg 84%
06:00 +22°C° 0 mm 4 mps 744 mmHg 79%
07:00 +23°C° 0 mm 5 mps 744 mmHg 73%
08:00 +26°C° 0 mm 5 mps 744 mmHg 68%
09:00 +27°C° 0 mm 5 mps 744 mmHg 63%
10:00 +29°C° 0 mm 5 mps 744 mmHg 57%
11:00 +30°C° 0 mm 5 mps 744 mmHg 51%
12:00 +30°C° 0 mm 5 mps 744 mmHg 50%
13:00 +32°C° 0 mm 5 mps 744 mmHg 50%
14:00 +32°C° 0 mm 5 mps 743 mmHg 49%
15:00 +32°C° 0 mm 5 mps 743 mmHg 53%
16:00 +30°C° 0 mm 4 mps 743 mmHg 57%
17:00 +29°C° 0 mm 4 mps 743 mmHg 61%
18:00 +28°C° 0 mm 4 mps 744 mmHg 64%
19:00 +27°C° 0 mm 4 mps 744 mmHg 68%
20:00 +25°C° 0 mm 4 mps 744 mmHg 71%
21:00 +25°C° 0 mm 4 mps 744 mmHg 73%
22:00 +23°C° 0 mm 4 mps 744 mmHg 74%
23:00 +22°C° 0 mm 4 mps 744 mmHg 75%

12 July, Sunday

Time Temperature Precipitation Wind Pressure Humidity
00:00 +22°C° 0 mm 3 mps 745 mmHg 77%
01:00 +21°C° 0 mm 3 mps 745 mmHg 79%
02:00 +21°C° 0 mm 2 mps 745 mmHg 80%
03:00 +21°C° 0 mm 2 mps 745 mmHg 81%
04:00 +21°C° 0 mm 3 mps 745 mmHg 82%
05:00 +21°C° 0 mm 3 mps 745 mmHg 82%
06:00 +22°C° 0 mm 3 mps 745 mmHg 77%
07:00 +25°C° 0 mm 3 mps 745 mmHg 71%
08:00 +26°C° 0 mm 3 mps 745 mmHg 66%
09:00 +28°C° 0 mm 3 mps 745 mmHg 62%
10:00 +29°C° 0 mm 3 mps 745 mmHg 58%
11:00 +30°C° 0 mm 3 mps 745 mmHg 54%
12:00 +31°C° 0 mm 3 mps 744 mmHg 52%
13:00 +31°C° 0 mm 3 mps 744 mmHg 50%
14:00 +33°C° 0 mm 3 mps 744 mmHg 48%
15:00 +31°C° 0 mm 3 mps 744 mmHg 51%
16:00 +31°C° 0 mm 3 mps 743 mmHg 53%
17:00 +30°C° 0 mm 4 mps 743 mmHg 56%
18:00 +29°C° 0 mm 3 mps 743 mmHg 61%
19:00 +27°C° 0 mm 3 mps 744 mmHg 67%
20:00 +25°C° 0 mm 3 mps 744 mmHg 72%
21:00 +25°C° 0 mm 3 mps 744 mmHg 74%
22:00 +24°C° 0 mm 3 mps 744 mmHg 75%
23:00 +22°C° 0 mm 3 mps 744 mmHg 76%

13 July, Monday

Time Temperature Precipitation Wind Pressure Humidity
00:00 +22°C° 0 mm 3 mps 744 mmHg 76%
01:00 +21°C° 0 mm 3 mps 743 mmHg 75%
02:00 +21°C° 0 mm 2 mps 743 mmHg 75%
03:00 +21°C° 0 mm 3 mps 743 mmHg 76%
04:00 +21°C° 0 mm 3 mps 743 mmHg 78%
05:00 +20°C° 0 mm 3 mps 743 mmHg 79%
06:00 +22°C° 0 mm 3 mps 743 mmHg 75%
07:00 +23°C° 0 mm 4 mps 743 mmHg 70%
08:00 +26°C° 0 mm 4 mps 743 mmHg 66%
09:00 +27°C° 0 mm 5 mps 743 mmHg 62%
10:00 +29°C° 0 mm 5 mps 743 mmHg 58%
11:00 +30°C° 0 mm 5 mps 742 mmHg 54%
12:00 +32°C° 0 mm 5 mps 742 mmHg 50%
13:00 +32°C° 0 mm 5 mps 742 mmHg 47%
14:00 +33°C° 0 mm 5 mps 741 mmHg 44%
15:00 +32°C° 0 mm 5 mps 741 mmHg 48%
16:00 +32°C° 0 mm 5 mps 741 mmHg 51%
17:00 +32°C° 0 mm 4 mps 740 mmHg 55%
18:00 +29°C° 0 mm 5 mps 741 mmHg 58%
19:00 +28°C° 0 mm 5 mps 741 mmHg 61%
20:00 +26°C° 0 mm 5 mps 741 mmHg 65%
21:00 +26°C° 0 mm 5 mps 741 mmHg 68%
22:00 +25°C° 0 mm 5 mps 741 mmHg 71%
23:00 +24°C° 0 mm 6 mps 741 mmHg 74%
Show more